Regional Weather Roundup
Issued by NWS

Home | Current Version | Previous Version | Graphics & Text | Print | Product List | Glossary On
Versions: 1 2 3 4 5 6 7 8 9 10 11 12 13 14 15 16 17 18 19 20 21 22 23 24 25 26 27 28 29 30 31 32 33 34 35 36 37 38 39 40 41 42 43 44 45 46 47 48 49 50
000
ASUS43 KLOT 021812
RWRIL

ILLINOIS REGIONAL WEATHER ROUNDUP
NATIONAL WEATHER SERVICE CHICAGO/ROMEOVILLE IL
100 PM CDT SUN AUG 02 2015

NOTE: "FAIR" INDICATES FEW OR NO CLOUDS BELOW 12,000 FEET WITH NO
SIGNIFICANT WEATHER AND/OR OBSTRUCTIONS TO VISIBILITY.

* THESE STATIONS ARE NOT UNDER NWS QUALITY CONTROL. THEY ALSO MAY NOT
  REPORT WEATHER SUCH AS PRECIPITATION OR FOG.

ILZ001-002-007-009-015-016-024-021900-
NORTHWEST ILLINOIS

CITY           SKY/WX    TMP DP  RH WIND       PRES   REMARKS
MOLINE         MOSUNNY   89  70  53 SW18G24   29.80F HX  94
6HR MIN TEMP:  71; 6HR MAX TEMP:  89; 6HR PCP: TRACE;

STERLING*      MOSUNNY   88  70  55 W13G22    29.76F HX  92
SAVANNA*       MOSUNNY   85  69  58 SW10      29.78F HX  88
$$

ILZ003-004-008-010-011-017-018-021900-
NORTH CENTRAL ILLINOIS

CITY           SKY/WX    TMP DP  RH WIND       PRES   REMARKS
ROCKFORD       MOSUNNY   88  68  51 SW15G26   29.78F HX  91
6HR MIN TEMP:  70; 6HR MAX TEMP:  88;

FREEPORT*      MOSUNNY   85  69  58 SW17G26   29.79F HX  89
ROCHELLE*      MOSUNNY   85  69  59 SW10G23   29.80F HX  88
DE KALB*       SUNNY     87  70  57 SW18G28   29.80F HX  91
PERU*          SUNNY     87  66  49 SW17      29.82F HX  89
$$

ILZ005-006-012>014-019>023-021900-
NORTHEAST ILLINOIS

CITY           SKY/WX    TMP DP  RH WIND       PRES   REMARKS
CHICAGO-OHARE  MOSUNNY   89  63  41 SW14G31   29.78F HX  90
6HR MIN TEMP:  72; 6HR MAX TEMP:  89;

CHICAGO-MIDWAY MOSUNNY   92  62  36 SW20G31   29.79F HX  92
6HR MIN TEMP:  73; 6HR MAX TEMP:  93;

AURORA         MOSUNNY   89  67  47 SW18G25   29.81F HX  92
6HR MIN TEMP:  70; 6HR MAX TEMP:  89;

LANSING*       SUNNY     90  61  37 SW26G32   29.81F HX  90
JOLIET*        SUNNY     90  67  47 SW12G20   29.81F HX  93
WAUKEGAN       PTSUNNY   88  67  49 SW18G25   29.74F HX  91
6HR MIN TEMP:  72; 6HR MAX TEMP:  89;

DUPAGE AIRPORT MOSUNNY   89  65  44 SW17G29   29.80F HX  91
6HR MIN TEMP:  70; 6HR MAX TEMP:  89;

KANKAKEE*      SUNNY     89  71  56 SW18      29.85F HX  95
WHEELING       SUNNY     91  63  39 SW20G29   29.77F HX  92
6HR MIN TEMP:  72; 6HR MAX TEMP:  91;

MORRIS*        SUNNY     88  69  53 SW16G24   29.80F HX  91
ROMEOVILLE*    SUNNY     88  60  38 SW15G31   29.81F HX  88
NORTHERLY ISL    N/A     88  60  38 SW13        N/A  HX  87
$$

LMZ740>746-021900-
SOUTHERN LAKE MICHIGAN

STATION/POSITION SKY/WX   TEMP    WIND        PRES    VSBY  WAVE
                          AIR SEA DIR/SP/G                  HT/PER
                          (F)     (DEG/KT/KT) (MB)    (MI)  (FT/S)
HARRISON CRIB              84     240/ 21/ 31   N/A
BURNHAM HARBOR             89     200/  9/ 21   N/A
CALUMET HARBOR             87     210/ 14/ 23   N/A
BURNS HARBOR               86     230/ 16/ 26 1009.5F
MICHIGAN CITY              83     200/ 19/ 24   N/A
MICHIGAN CITY 6N           80 74  250/ 10/ 14   N/A           3/ 3
ST. JOSEPH                 78 74  250/ 14/ 16   N/A           2/ 3
$$

ILZ025>027-034>036-040-047-049-050-058-095>099-021900-
WEST-CENTRAL ILLINOIS

CITY           SKY/WX    TMP DP  RH WIND       PRES   REMARKS
QUINCY         MOSUNNY   89  71  55 SW14      29.88F HX  95
GALESBURG*     SUNNY     86  73  65 SW17G23   29.85S HX  94
MACOMB*        SUNNY     87  72  61 SW13      29.88S HX  93
JACKSONVILLE*  MOSUNNY   91  74  58 SW8       29.88F HX 100
PITTSFIELD*    MOSUNNY   89  69  52 SW15      29.90F HX  94
$$

ILZ028>032-037-038-041>044-048-051>054-059>061-021900-
CENTRAL ILLINOIS

CITY           SKY/WX    TMP DP  RH WIND       PRES   REMARKS
PONTIAC        SUNNY     87  73  63 SW15      29.86F HX  95
BLOOMINGTON    MOSUNNY   87  70  57 SW17      29.89F HX  92
DECATUR        PTSUNNY   87  70  56 SW10      29.91F HX  92
PEORIA         MOSUNNY   90  70  51 SW15      29.85F HX  95
6HR MIN TEMP:  71; 6HR MAX TEMP:  91;

LACON*         SUNNY     87  70  57 SW13      29.82F HX  91
LINCOLN*       CLOUDY    81  71  72 S6        29.89F THUNDER HX  85
SPRINGFIELD    MOSUNNY   88  73  61 SW9       29.89F HX  95
6HR MIN TEMP:  73; 6HR MAX TEMP:  89; 6HR PCP: TRACE;

TAYLORVILLE    MOSUNNY   88  72  58 S9        29.91F HX  94
$$

ILZ033-039-045-046-055>057-062-063-021900-
EAST-CENTRAL ILLINOIS

CITY           SKY/WX    TMP DP  RH WIND       PRES   REMARKS
CHAMPAIGN      MOSUNNY   86  70  58 SW13      29.91F HX  90
DANVILLE*      SUNNY     86  73  65 SW15      29.87F HX  92
MATTOON        MOSUNNY   87  69  54 SW10      29.92F HX  91
PARIS*         SUNNY     87  72  60 SW12G17   29.92F HX  94
$$

ILZ079-100>102-021900-
SOUTHWEST ILLINOIS

CITY           SKY/WX    TMP DP  RH WIND       PRES   REMARKS
BELLEVILLE     SUNNY     91  74  57 SW9       29.90F HX 100
CAHOKIA*       MOSUNNY   93  68  43 W6        29.90F HX  97
SPARTA*        MOSUNNY   88  72  59 SW8       29.94F HX  94
$$

ILZ064>066-069>071-074>076-080>082-084>086-088>090-092>094-021900-
SOUTH-CENTRAL ILLINOIS

CITY           SKY/WX    TMP DP  RH WIND       PRES   REMARKS
CARBONDALE     SUNNY     88  72  58 SW8       29.95F HX  94
6HR MIN TEMP:  70; 6HR MAX TEMP:  88;

CAIRO*         MOSUNNY   86  72  62 S5        29.96F HX  93
EFFINGHAM*     SUNNY     90  64  42 SW10      29.94F HX  91
MARION         MOSUNNY   90  73  58 SW12      29.96F HX  98
MT. VERNON     SUNNY     90  72  55 S12       29.95F HX  96
CENTRALIA*     SUNNY     90  68  48 S10       29.94F HX  93
SALEM*         MOSUNNY   89  69  51 SW8       29.94F HX  93
METROPOLIS*    SUNNY     86  72  62 S3        29.97F HX  92
$$

ILZ067-068-072-073-078-083-087-091-021900-
SOUTHEAST ILLINOIS

CITY           SKY/WX    TMP DP  RH WIND       PRES   REMARKS
LAWRENCEVILLE  SUNNY     88  69  53 S10       29.95F HX  92
FLORA*         SUNNY     88  70  54 SW8       29.94F HX  93
FAIRFIELD*     SUNNY     87  73  62 S13       29.94F HX  94
HARRISBURG*    SUNNY     86  69  57 S6        29.97F HX  90
ROBINSON*      SUNNY     86  70  58 SW8       29.95F HX  91
CARMI*         SUNNY     85  66  53 CALM      29.95F HX  87
$$

ABBREVIATIONS USED IN REMARKS
   TC - TEMPERATURE IN CELSIUS
  WCI - WIND CHILL INDEX
   HX - HEAT INDEX
  VSB - VISIBILITY
$$



USA.gov is the U.S. government's official web portal to all federal, state and local government web resources and services.